Home > Weather > Le Mans > Past weeks

Flag for France Past Weather in Le Mans, Pays de la Loire, France — Yesterday and Last 2 Weeks

Now
57 °F

Passing clouds.


Feels Like: 55 °F
Forecast: 49 / 72 °F
Wind: 8 mph from Northeast

Location: Le Mans Airport

Current Time: May 25, 2016 at 11:16:58 AM

Latest Report: May 25, 2016 at 10:30 AM


Visibility: N/A

Pressure: 29.92 "Hg

Humidity: 72%

Dew Point: 48 °F

Location of Le MansLocation

Past Weather in Le Mans — Graph

°F

Le Mans Temperature Yesterday

Maximum temperature yesterday: 64 °F (at 1:30 PM)
Minimum temperature yesterday: 41 °F (at 5:00 AM)
Average temperature yesterday: 54 °F

High & Low Weather Summary for the Past Weeks

 TemperatureHumidityPressure
High77 °F (May 21, 4:00 PM)100% (May 11, 3:00 AM)30.27 "Hg (May 11, 3:00 AM)
Low37 °F (May 15, 6:00 AM)32% (May 15, 6:30 PM)29.53 "Hg (May 12, 4:00 AM)
Average57 °F77%29.93 "Hg
* Reported May 10 10:00 AM — May 25 10:00 AM, Le Mans, Weather by CustomWeather, © 2016

Note: Actual official high and low records may vary slightly from our data, if they occured in-between our weather recording intervals... More about our weather records

Advertising

Le Mans Weather History for the Previous 24 Hours

Scroll right to see more
 ConditionsComfort  
Time TempWeatherWind HumidityBarometerVisibility
10:00 AM
Wed, May 25
55 °FPassing clouds.8 mph77%29.92 "HgN/A
9:30 AM54 °FOvercast.6 mph82%29.95 "HgN/A
9:00 AM52 °FOvercast.9 mph82%29.95 "HgN/A
8:30 AM50 °FPassing clouds.10 mph88%29.95 "HgN/A
8:00 AM50 °FMostly cloudy.10 mph82%29.95 "HgN/A
7:30 AM48 °FMostly cloudy.10 mph87%29.95 "HgN/A
7:00 AM48 °FPassing clouds.7 mph87%29.92 "HgN/A
6:30 AM46 °FPassing clouds.5 mph93%29.92 "HgN/A
6:00 AM46 °FPassing clouds.7 mph93%29.92 "HgN/A
5:30 AM46 °FClear.6 mph93%29.92 "Hg10 mi
5:00 AM46 °FClear.6 mph93%29.95 "Hg10 mi
4:30 AM48 °FPassing clouds.6 mph87%29.95 "HgN/A
4:00 AM48 °FPassing clouds.6 mph87%29.95 "HgN/A
3:30 AM48 °FPassing clouds.5 mph87%29.95 "HgN/A
3:00 AM48 °FPassing clouds.5 mph82%29.95 "HgN/A
2:30 AM48 °FClear.6 mph87%29.95 "Hg10 mi
2:00 AM50 °FClear.6 mph82%29.95 "Hg10 mi
1:30 AM50 °FClear.7 mph82%29.98 "Hg10 mi
1:00 AM50 °FClear.8 mph82%29.98 "Hg10 mi
12:30 AM52 °FClear.7 mph77%29.98 "Hg10 mi
12:00 AM52 °FClear.10 mph77%29.98 "Hg10 mi
11:30 PM
Tue, May 24
54 °FClear.9 mph72%29.98 "Hg10 mi
11:00 PM54 °FPassing clouds.10 mph72%29.98 "HgN/A
10:30 PM55 °FSunny.9 mph67%29.98 "Hg10 mi
10:00 PM57 °FPassing clouds.7 mph63%29.98 "HgN/A
9:30 PM59 °FPassing clouds.9 mph59%29.98 "HgN/A
9:00 PM59 °FScattered clouds.9 mph59%29.98 "HgN/A
8:30 PM61 °FScattered clouds.12 mph52%29.95 "HgN/A
8:00 PM61 °FPassing clouds.10 mph52%29.95 "HgN/A
7:30 PM63 °FScattered clouds.12 mph49%29.95 "HgN/A
7:00 PM63 °FPassing clouds.12 mph45%29.98 "HgN/A
6:30 PM63 °FPassing clouds.10 mph49%29.98 "HgN/A
6:00 PM63 °FPassing clouds.12 mph52%29.98 "HgN/A
5:30 PM63 °FScattered clouds.10 mph52%30.01 "HgN/A
5:00 PM63 °FPartly sunny.10 mph52%30.01 "HgN/A
4:30 PM63 °FScattered clouds.10 mph56%30.01 "HgN/A
4:00 PM63 °FPartly sunny.10 mph56%30.04 "HgN/A
3:30 PM63 °FScattered clouds.10 mph59%30.04 "HgN/A
3:00 PM63 °FBroken clouds.10 mph56%30.04 "HgN/A
2:30 PM64 °FScattered clouds.12 mph52%30.04 "HgN/A
2:00 PM63 °FPassing clouds.12 mph59%30.04 "HgN/A
1:30 PM64 °FPassing clouds.12 mph56%30.04 "HgN/A
1:00 PM63 °FPartly sunny.10 mph59%30.07 "HgN/A
12:30 PM61 °FScattered clouds.9 mph63%30.07 "HgN/A
12:00 PM61 °FPassing clouds.9 mph68%30.07 "HgN/A
11:30 AM61 °FPassing clouds.8 mph68%30.09 "HgN/A
11:00 AM59 °FPassing clouds.7 mph77%30.09 "HgN/A
Weather by CustomWeather, © 2016

See weather overviewHow to use our weather pages